HERMES-5 (63834 NORAD) Tracking and Keplerian Element Data

This shows tracking and keplerian element data for the satellite.

Feedback or suggestion? Click here.




ElementValue
Catalog63834
NameHERMES-5
Epoch Orbit4250
Epoch Day353.21160505
Epoch Year2025
RAAN244.2297
Inclination97.4177
Eccentricity0.0007178
Argument of Perigee65.7159
Mean Anonmoly294.4827
Mean Motion15.23026921
Decay Rate9.56E-05
L11 63834U 25052BQ 25353.21160505 .00009560 00000+0 40879-3 0 9996
L22 63834 97.4177 244.2297 0007178 65.7159 294.4827 15.23026921 42505



Live tracking and technical data element details for HERMES-5 (NORAD 63834). HERMES-5 can be tracked NOW for your location showing map with azimuth and elevation plus other details from your city location.







IsCatalogInMostPopularTable: catalog: 63834, numindb: 3
Update: records affected: 1



GetName: 63834 HERMES-5

Hit Count: updated at: Wed, 15 Apr 2026 01:38:05 GMT